OpenBCM V1.08-5-g2f4a (Linux)

Packet Radio Mailbox

IZ3LSV

[San Dona' di P. JN]

 Login: GUEST





  
CX2SA  > KEPS     20.06.14 04:14l 304 Lines 7964 Bytes #999 (0) @ WW
BID : ORB14170.D
Read: GUEST
Subj: Orbital Elements  14170.MICROS
Path: IZ3LSV<IQ5KG<IK1NHL<CX2SA
Sent: 140620/0312Z @:CX2SA.SAL.URY.SA #:7048 [Salto] FBB7.00e $:ORB14170.D
From: CX2SA@CX2SA.SAL.URY.SA
To  : KEPS@AMSAT


HR AMSAT ORBITAL ELEMENTS FOR THE MICROSATS
FROM WA5QGD FORT WORTH,TX June 19, 2014
BID: ORB14170.D
TO ALL RADIO AMATEURS BT

Satellite: UO-11
Catalog number: 14781
Epoch time:      14170.12550401
Element set:     522
Inclination:      097.8527 deg
RA of node:       230.2150 deg
Eccentricity:    0.0009403
Arg of perigee:   166.5175 deg
Mean anomaly:     193.6291 deg
Mean motion:   14.81612690 rev/day
Decay rate:       4.36e-06 rev/day^2
Epoch rev:           62825
Checksum:              276

Satellite: AO-16
Catalog number: 20439
Epoch time:      14170.82486668
Element set:      48
Inclination:      098.5066 deg
RA of node:       108.1111 deg
Eccentricity:    0.0011746
Arg of perigee:   147.1182 deg
Mean anomaly:     270.6758 deg
Mean motion:   14.32360638 rev/day
Decay rate:        3.5e-07 rev/day^2
Epoch rev:           27486
Checksum:              305

Satellite: LO-19
Catalog number: 20442
Epoch time:      14170.79923602
Element set:     986
Inclination:      098.4774 deg
RA of node:       108.7330 deg
Eccentricity:    0.0012854
Arg of perigee:   137.4381 deg
Mean anomaly:     222.7801 deg
Mean motion:   14.32562844 rev/day
Decay rate:        3.7e-07 rev/day^2
Epoch rev:           27505
Checksum:              305

Satellite: AO-27
Catalog number: 22825
Epoch time:      14170.09378236
Element set:     694
Inclination:      098.6614 deg
RA of node:       116.1640 deg
Eccentricity:    0.0007254
Arg of perigee:   294.5370 deg
Mean anomaly:     193.6615 deg
Mean motion:   14.29723388 rev/day
Decay rate:        3.4e-07 rev/day^2
Epoch rev:            8105
Checksum:              309

Satellite: IO-26
Catalog number: 22826
Epoch time:      14169.78392220
Element set:     450
Inclination:      098.6557 deg
RA of node:       116.0750 deg
Eccentricity:    0.0007760
Arg of perigee:   286.9469 deg
Mean anomaly:     073.0863 deg
Mean motion:   14.30024052 rev/day
Decay rate:        2.7e-07 rev/day^2
Epoch rev:            8114
Checksum:              297

Satellite: GO-32
Catalog number: 25397
Epoch time:      14170.49249781
Element set:     373
Inclination:      098.4680 deg
RA of node:       128.3944 deg
Eccentricity:    0.0000501
Arg of perigee:   020.7460 deg
Mean anomaly:     100.2114 deg
Mean motion:   14.23447027 rev/day
Decay rate:       -3.0e-08 rev/day^2
Epoch rev:           82819
Checksum:              279

Satellite: NO-44
Catalog number: 26931
Epoch time:      14169.79338211
Element set:     628
Inclination:      067.0525 deg
RA of node:       034.3149 deg
Eccentricity:    0.0006379
Arg of perigee:   282.6928 deg
Mean anomaly:     077.3459 deg
Mean motion:   14.30121199 rev/day
Decay rate:        4.9e-07 rev/day^2
Epoch rev:           66383
Checksum:              327

Satellite: SO-50
Catalog number: 27607
Epoch time:      14170.45973605
Element set:     423
Inclination:      064.5554 deg
RA of node:       225.4198 deg
Eccentricity:    0.0047902
Arg of perigee:   010.0179 deg
Mean anomaly:     350.1865 deg
Mean motion:   14.73780782 rev/day
Decay rate:       2.71e-06 rev/day^2
Epoch rev:           61781
Checksum:              306

Satellite: CO-55
Catalog number: 27844
Epoch time:      14170.03270181
Element set:     950
Inclination:      098.6975 deg
RA of node:       178.7781 deg
Eccentricity:    0.0008457
Arg of perigee:   268.6410 deg
Mean anomaly:     154.9022 deg
Mean motion:   14.21512754 rev/day
Decay rate:       1.32e-06 rev/day^2
Epoch rev:           56884
Checksum:              320

Satellite: CO-57
Catalog number: 27848
Epoch time:      14169.96789880
Element set:     891
Inclination:      098.7067 deg
RA of node:       178.4257 deg
Eccentricity:    0.0008352
Arg of perigee:   276.1375 deg
Mean anomaly:     149.2631 deg
Mean motion:   14.21198964 rev/day
Decay rate:       1.31e-06 rev/day^2
Epoch rev:           56875
Checksum:              372

Satellite: AO-51
Catalog number: 28375
Epoch time:      14170.77468724
Element set:     867
Inclination:      098.2499 deg
RA of node:       117.5953 deg
Eccentricity:    0.0082496
Arg of perigee:   345.4267 deg
Mean anomaly:     014.4545 deg
Mean motion:   14.41392419 rev/day
Decay rate:        7.2e-07 rev/day^2
Epoch rev:           52427
Checksum:              343

Satellite: CP3
Catalog number: 31129
Epoch time:      14170.63901333
Element set:     775
Inclination:      097.9329 deg
RA of node:       148.4958 deg
Eccentricity:    0.0098170
Arg of perigee:   004.2789 deg
Mean anomaly:     055.0374 deg
Mean motion:   14.54704403 rev/day
Decay rate:       5.38e-06 rev/day^2
Epoch rev:           38039
Checksum:              316

Satellite: CO-65
Catalog number: 32785
Epoch time:      14170.46374918
Element set:     979
Inclination:      097.6998 deg
RA of node:       221.6860 deg
Eccentricity:    0.0014365
Arg of perigee:   175.6752 deg
Mean anomaly:     294.1481 deg
Mean motion:   14.85312006 rev/day
Decay rate:       9.33e-06 rev/day^2
Epoch rev:           33236
Checksum:              342

Satellite: PRISM
Catalog number: 33493
Epoch time:      14170.76632181
Element set:      24
Inclination:      098.2490 deg
RA of node:       346.5245 deg
Eccentricity:    0.0019380
Arg of perigee:   076.7153 deg
Mean anomaly:     283.6213 deg
Mean motion:   14.89465781 rev/day
Decay rate:      2.822e-05 rev/day^2
Epoch rev:           29256
Checksum:              310

Satellite: SOHLA-1
Catalog number: 33496
Epoch time:      14170.42859146
Element set:     380
Inclination:      098.1702 deg
RA of node:       291.3645 deg
Eccentricity:    0.0005634
Arg of perigee:   224.8569 deg
Mean anomaly:     175.1805 deg
Mean motion:   14.70815544 rev/day
Decay rate:       2.10e-06 rev/day^2
Epoch rev:           28984
Checksum:              310

Satellite: TISAT-1
Catalog number: 36799
Epoch time:      14170.77763610
Element set:     285
Inclination:      098.0170 deg
RA of node:       262.7913 deg
Eccentricity:    0.0012550
Arg of perigee:   318.0742 deg
Mean anomaly:     041.9488 deg
Mean motion:   14.85685223 rev/day
Decay rate:      2.154e-05 rev/day^2
Epoch rev:           21310
Checksum:              299

Satellite: STUDSAT
Catalog number: 36801
Epoch time:      14170.33482017
Element set:     841
Inclination:      098.0348 deg
RA of node:       270.4301 deg
Eccentricity:    0.0007895
Arg of perigee:   282.9086 deg
Mean anomaly:     112.8430 deg
Mean motion:   14.96735484 rev/day
Decay rate:      5.955e-05 rev/day^2
Epoch rev:           21345
Checksum:              302

Satellite: ALMASAT-1
Catalog number: 38078
Epoch time:      14170.42925534
Element set:      58
Inclination:      069.4692 deg
RA of node:       053.8950 deg
Eccentricity:    0.0592123
Arg of perigee:   028.7845 deg
Mean anomaly:     022.5978 deg
Mean motion:   14.50235424 rev/day
Decay rate:     3.2210e-04 rev/day^2
Epoch rev:           12196
Checksum:              307

Satellite: XATCOBEO
Catalog number: 38082
Epoch time:      14170.83680162
Element set:     326
Inclination:      069.4410 deg
RA of node:       308.6319 deg
Eccentricity:    0.0198148
Arg of perigee:   329.7853 deg
Mean anomaly:     182.8739 deg
Mean motion:   15.57306036 rev/day
Decay rate:    1.95169e-03 rev/day^2
Epoch rev:           12480
Checksum:              327

Satellite: CUBEBUG-1
Catalog number: 39153
Epoch time:      14170.79517675
Element set:     221
Inclination:      098.0423 deg
RA of node:       251.0914 deg
Eccentricity:    0.0017793
Arg of perigee:   346.6589 deg
Mean anomaly:     013.4112 deg
Mean motion:   14.77728671 rev/day
Decay rate:      1.123e-05 rev/day^2
Epoch rev:            6194
Checksum:              301

Satellite: ESTCUBE-1
Catalog number: 39161
Epoch time:      14170.74106517
Element set:     208
Inclination:      098.0968 deg
RA of node:       251.6181 deg
Eccentricity:    0.0010957
Arg of perigee:   035.4489 deg
Mean anomaly:     324.7424 deg
Mean motion:   14.70008835 rev/day
Decay rate:       9.66e-06 rev/day^2
Epoch rev:            5997
Checksum:              317



Read previous mail | Read next mail


 18.12.2025 06:22:54lGo back Go up